GEFSSE_prec_meanprec_216.txt.gz
QPF
0.12 0.14 0.19 0.13 0.09 0.07 0.06 0.07 0.08 0.07 0.06 0.05 0.05 0.04 0.04 0.05 0.06 0.06 0.05 0.05 0.06 0.06 0.07 0.07 0.05 0.03 0.03 0.03 0.04 0.03 0.02 0.02 0.02 0.01 0.02 0.02 0.02 0.03 0.05 0.07 0.10 0.05 0.06
0.08 0.06 0.10 0.11 0.08 0.06 0.06 0.06 0.07 0.06 0.06 0.06 0.07 0.05 0.04 0.05 0.06 0.04 0.04 0.05 0.06 0.06 0.05 0.05 0.03 0.03 0.04 0.03 0.02 0.02 0.01 0.01 0.01 0.03 0.03 0.01 0.02 0.03 0.06 0.10 0.09 0.03 0.04
0.06 0.08 0.08 0.08 0.07 0.06 0.07 0.07 0.08 0.07 0.06 0.07 0.06 0.06 0.06 0.05 0.04 0.04 0.04 0.05 0.05 0.06 0.05 0.05 0.04 0.02 0.02 0.02 0.02 0.01 0.01 0.02 0.04 0.07 0.11 0.06 0.02 0.03 0.04 0.05 0.04 0.02 0.03
0.06 0.09 0.06 0.06 0.07 0.08 0.08 0.08 0.07 0.06 0.05 0.06 0.05 0.05 0.05 0.06 0.05 0.06 0.05 0.04 0.05 0.05 0.04 0.04 0.03 0.02 0.02 0.01 0.01 0.01 0.01 0.03 0.05 0.11 0.10 0.03 0.01 0.01 0.02 0.01 0.03 0.04 0.03
0.06 0.07 0.06 0.07 0.07 0.07 0.08 0.08 0.08 0.06 0.05 0.05 0.06 0.06 0.05 0.06 0.05 0.05 0.04 0.04 0.05 0.04 0.04 0.03 0.03 0.02 0.01 0.01 0.01 0.01 0.01 0.02 0.07 0.08 0.05 0.03 0.02 0.02 0.02 0.02 0.03 0.03 0.02
0.05 0.04 0.03 0.04 0.06 0.06 0.06 0.07 0.07 0.05 0.04 0.04 0.04 0.04 0.05 0.06 0.05 0.05 0.05 0.04 0.04 0.03 0.03 0.04 0.04 0.02 0.02 0.01 0.02 0.02 0.02 0.04 0.06 0.03 0.03 0.03 0.01 0.02 0.04 0.03 0.02 0.03 0.02
0.06 0.05 0.03 0.03 0.05 0.05 0.05 0.06 0.05 0.04 0.04 0.04 0.03 0.03 0.04 0.04 0.04 0.04 0.04 0.04 0.03 0.02 0.02 0.03 0.04 0.03 0.03 0.02 0.01 0.01 0.02 0.03 0.03 0.02 0.03 0.02 0.01 0.01 0.02 0.02 0.02 0.02 0.02
0.10 0.09 0.05 0.05 0.05 0.04 0.05 0.05 0.04 0.03 0.03 0.04 0.02 0.02 0.02 0.02 0.02 0.03 0.03 0.03 0.02 0.02 0.02 0.02 0.03 0.03 0.02 0.02 0.01 0.01 0.01 0.03 0.03 0.02 0.02 0.01 0.01 0.01 0.01 0.01 0.01 0.01 0.01
0.14 0.12 0.07 0.07 0.06 0.04 0.05 0.06 0.04 0.03 0.02 0.03 0.02 0.02 0.02 0.01 0.01 0.02 0.02 0.03 0.01 0.02 0.02 0.02 0.02 0.02 0.02 0.02 0.01 0.01 0.02 0.03 0.03 0.03 0.01 0.01 0.01 0.01 0.01 0.01 0.01 0.01 0.01
0.16 0.14 0.08 0.07 0.07 0.05 0.05 0.05 0.04 0.03 0.03 0.03 0.02 0.02 0.03 0.02 0.01 0.02 0.02 0.03 0.02 0.02 0.02 0.02 0.01 0.01 0.02 0.02 0.01 0.01 0.02 0.02 0.01 0.02 0.01 0.00 0.01 0.00 0.01 0.01 0.01 0.01 0.00
0.14 0.15 0.09 0.08 0.09 0.07 0.05 0.04 0.04 0.04 0.04 0.05 0.03 0.03 0.08 0.10 0.05 0.04 0.02 0.02 0.02 0.02 0.02 0.01 0.01 0.00 0.01 0.01 0.01 0.01 0.03 0.02 0.02 0.01 0.01 0.00 0.00 0.00 0.00 0.00 0.00 0.01 0.01
0.17 0.16 0.12 0.11 0.11 0.09 0.05 0.05 0.07 0.06 0.07 0.08 0.06 0.06 0.08 0.09 0.10 0.05 0.03 0.01 0.01 0.01 0.01 0.01 0.01 0.01 0.01 0.02 0.01 0.01 0.02 0.03 0.02 0.02 0.01 0.01 0.00 0.01 0.02 0.01 0.00 0.01 0.01
0.18 0.16 0.13 0.10 0.07 0.06 0.04 0.03 0.05 0.07 0.08 0.08 0.06 0.05 0.04 0.04 0.03 0.02 0.03 0.02 0.01 0.02 0.02 0.01 0.02 0.04 0.03 0.01 0.01 0.00 0.01 0.01 0.02 0.04 0.02 0.01 0.01 0.01 0.01 0.01 0.01 0.01 0.01
0.14 0.15 0.13 0.06 0.05 0.05 0.04 0.05 0.03 0.03 0.05 0.07 0.06 0.06 0.03 0.04 0.05 0.03 0.05 0.04 0.03 0.03 0.04 0.02 0.02 0.02 0.02 0.01 0.00 0.00 0.00 0.00 0.01 0.01 0.02 0.01 0.01 0.01 0.01 0.02 0.02 0.03 0.03
0.05 0.09 0.12 0.06 0.05 0.06 0.05 0.06 0.03 0.02 0.03 0.04 0.04 0.06 0.03 0.04 0.05 0.04 0.04 0.03 0.02 0.01 0.01 0.02 0.01 0.01 0.01 0.01 0.01 0.00 0.00 0.00 0.00 0.00 0.02 0.01 0.00 0.00 0.01 0.02 0.02 0.03 0.04
0.01 0.02 0.04 0.04 0.04 0.05 0.05 0.05 0.03 0.01 0.03 0.03 0.04 0.04 0.04 0.05 0.06 0.06 0.04 0.03 0.02 0.01 0.01 0.01 0.01 0.01 0.00 0.01 0.01 0.01 0.00 0.00 0.00 0.00 0.02 0.02 0.01 0.00 0.00 0.01 0.01 0.02 0.03
0.01 0.01 0.02 0.02 0.02 0.03 0.04 0.04 0.01 0.01 0.01 0.03 0.03 0.03 0.02 0.03 0.05 0.05 0.04 0.03 0.03 0.02 0.02 0.01 0.00 0.01 0.01 0.01 0.01 0.01 0.01 0.00 0.01 0.02 0.02 0.02 0.03 0.02 0.01 0.01 0.01 0.02 0.02
0.01 0.00 0.00 0.00 0.01 0.03 0.04 0.04 0.04 0.02 0.02 0.03 0.04 0.03 0.02 0.03 0.03 0.04 0.04 0.04 0.04 0.02 0.02 0.03 0.03 0.02 0.01 0.01 0.01 0.01 0.01 0.01 0.00 0.01 0.01 0.02 0.04 0.04 0.02 0.01 0.01 0.02 0.02
0.01 0.02 0.02 0.01 0.01 0.02 0.03 0.03 0.03 0.04 0.04 0.04 0.06 0.04 0.02 0.02 0.02 0.04 0.05 0.05 0.03 0.04 0.05 0.04 0.06 0.06 0.06 0.06 0.02 0.02 0.01 0.02 0.01 0.01 0.01 0.02 0.03 0.04 0.04 0.02 0.01 0.01 0.03
0.01 0.03 0.04 0.03 0.03 0.03 0.03 0.04 0.04 0.03 0.03 0.04 0.05 0.03 0.02 0.03 0.02 0.03 0.04 0.06 0.04 0.05 0.06 0.07 0.10 0.09 0.07 0.07 0.03 0.03 0.02 0.02 0.02 0.03 0.02 0.02 0.03 0.05 0.05 0.06 0.06 0.05 0.05
0.01 0.02 0.03 0.03 0.03 0.05 0.05 0.06 0.05 0.04 0.03 0.03 0.02 0.02 0.03 0.03 0.03 0.04 0.05 0.09 0.07 0.07 0.07 0.08 0.10 0.11 0.09 0.08 0.09 0.06 0.02 0.01 0.02 0.02 0.02 0.03 0.04 0.05 0.06 0.08 0.10 0.11 0.07
0.01 0.01 0.01 0.01 0.03 0.03 0.05 0.05 0.05 0.04 0.03 0.03 0.03 0.05 0.05 0.04 0.04 0.05 0.07 0.08 0.09 0.11 0.10 0.10 0.11 0.11 0.08 0.09 0.12 0.14 0.13 0.11 0.07 0.02 0.03 0.04 0.06 0.07 0.08 0.09 0.11 0.13 0.12
0.01 0.00 0.00 0.01 0.02 0.02 0.04 0.04 0.04 0.05 0.04 0.07 0.07 0.08 0.06 0.06 0.06 0.06 0.07 0.07 0.09 0.09 0.13 0.15 0.12 0.12 0.13 0.12 0.13 0.14 0.15 0.16 0.13 0.07 0.05 0.03 0.04 0.06 0.09 0.11 0.10 0.12 0.13
0.01 0.01 0.01 0.02 0.02 0.03 0.03 0.04 0.05 0.06 0.06 0.07 0.08 0.09 0.09 0.08 0.07 0.07 0.08 0.09 0.09 0.08 0.13 0.12 0.14 0.14 0.17 0.15 0.15 0.12 0.11 0.13 0.15 0.14 0.11 0.07 0.07 0.07 0.07 0.08 0.08 0.11 0.13
0.00 0.00 0.00 0.01 0.02 0.02 0.03 0.04 0.05 0.06 0.06 0.06 0.08 0.12 0.11 0.11 0.08 0.06 0.07 0.07 0.07 0.07 0.09 0.10 0.14 0.13 0.14 0.13 0.12 0.11 0.11 0.12 0.12 0.13 0.15 0.16 0.17 0.14 0.11 0.11 0.11 0.13 0.14
0.00 0.00 0.00 0.01 0.02 0.02 0.03 0.03 0.05 0.05 0.07 0.08 0.12 0.14 0.12 0.10 0.09 0.07 0.05 0.06 0.06 0.06 0.07 0.08 0.11 0.12 0.12 0.13 0.12 0.10 0.09 0.10 0.10 0.13 0.15 0.18 0.21 0.18 0.13 0.11 0.12 0.12 0.11

GEFSSE_prec_meanprec_222.txt.gz
QPF
0.14 0.13 0.13 0.10 0.08 0.06 0.05 0.04 0.06 0.06 0.05 0.05 0.05 0.05 0.05 0.06 0.05 0.06 0.06 0.07 0.07 0.08 0.07 0.06 0.05 0.04 0.04 0.05 0.05 0.06 0.06 0.07 0.06 0.04 0.04 0.03 0.03 0.04 0.04 0.04 0.04 0.02 0.04
0.16 0.20 0.20 0.14 0.08 0.05 0.03 0.05 0.07 0.06 0.05 0.04 0.03 0.03 0.04 0.05 0.04 0.04 0.06 0.05 0.05 0.05 0.06 0.05 0.05 0.04 0.03 0.03 0.03 0.04 0.06 0.06 0.06 0.05 0.04 0.03 0.04 0.05 0.06 0.05 0.03 0.03 0.03
0.17 0.18 0.13 0.09 0.07 0.05 0.04 0.04 0.05 0.05 0.03 0.03 0.03 0.03 0.03 0.04 0.04 0.04 0.04 0.04 0.05 0.05 0.05 0.04 0.04 0.03 0.02 0.02 0.03 0.03 0.05 0.07 0.07 0.06 0.03 0.01 0.03 0.06 0.05 0.03 0.03 0.02 0.03
0.14 0.10 0.05 0.05 0.05 0.05 0.04 0.04 0.05 0.04 0.03 0.03 0.03 0.03 0.03 0.04 0.03 0.03 0.04 0.04 0.04 0.04 0.03 0.03 0.03 0.02 0.02 0.02 0.03 0.04 0.06 0.07 0.08 0.06 0.02 0.00 0.01 0.03 0.03 0.01 0.01 0.02 0.02
0.07 0.06 0.06 0.07 0.05 0.04 0.03 0.03 0.03 0.03 0.03 0.03 0.03 0.02 0.02 0.03 0.04 0.03 0.04 0.04 0.03 0.03 0.03 0.03 0.02 0.02 0.02 0.03 0.03 0.04 0.06 0.06 0.08 0.06 0.01 0.01 0.01 0.03 0.03 0.02 0.01 0.02 0.02
0.03 0.03 0.06 0.06 0.06 0.04 0.03 0.03 0.03 0.02 0.02 0.02 0.01 0.01 0.02 0.02 0.03 0.03 0.03 0.03 0.03 0.02 0.02 0.03 0.02 0.01 0.02 0.03 0.04 0.04 0.05 0.06 0.05 0.03 0.01 0.00 0.00 0.02 0.02 0.02 0.02 0.02 0.02
0.03 0.03 0.04 0.05 0.04 0.03 0.02 0.02 0.02 0.02 0.02 0.01 0.01 0.01 0.02 0.02 0.02 0.02 0.02 0.03 0.03 0.02 0.01 0.02 0.01 0.01 0.02 0.02 0.03 0.04 0.06 0.06 0.03 0.02 0.01 0.00 0.01 0.02 0.01 0.01 0.02 0.01 0.01
0.02 0.03 0.02 0.03 0.02 0.02 0.02 0.03 0.02 0.01 0.01 0.01 0.01 0.01 0.01 0.02 0.02 0.02 0.02 0.01 0.02 0.02 0.02 0.01 0.02 0.01 0.01 0.02 0.03 0.04 0.06 0.06 0.04 0.04 0.02 0.00 0.01 0.01 0.01 0.01 0.01 0.01 0.01
0.03 0.03 0.04 0.04 0.03 0.02 0.03 0.02 0.01 0.01 0.01 0.01 0.01 0.01 0.01 0.01 0.01 0.01 0.01 0.01 0.01 0.01 0.01 0.02 0.01 0.02 0.01 0.01 0.02 0.04 0.06 0.07 0.06 0.06 0.02 0.01 0.01 0.01 0.01 0.00 0.00 0.00 0.01
0.05 0.04 0.04 0.04 0.04 0.04 0.02 0.01 0.01 0.01 0.01 0.02 0.02 0.02 0.02 0.02 0.01 0.01 0.01 0.01 0.02 0.02 0.02 0.01 0.01 0.01 0.01 0.02 0.03 0.04 0.05 0.05 0.06 0.06 0.03 0.02 0.01 0.01 0.00 0.00 0.01 0.01 0.01
0.08 0.07 0.08 0.08 0.06 0.05 0.02 0.02 0.02 0.02 0.01 0.02 0.03 0.03 0.03 0.02 0.01 0.01 0.01 0.01 0.01 0.01 0.01 0.01 0.02 0.01 0.02 0.03 0.04 0.05 0.05 0.06 0.07 0.06 0.04 0.03 0.02 0.01 0.01 0.00 0.00 0.01 0.01
0.19 0.15 0.13 0.11 0.07 0.05 0.02 0.01 0.02 0.01 0.01 0.02 0.02 0.02 0.02 0.03 0.03 0.03 0.02 0.03 0.02 0.01 0.01 0.01 0.01 0.02 0.02 0.04 0.05 0.05 0.07 0.06 0.07 0.08 0.05 0.02 0.03 0.02 0.01 0.01 0.01 0.01 0.01
0.21 0.18 0.17 0.13 0.09 0.08 0.03 0.01 0.02 0.02 0.02 0.02 0.02 0.03 0.03 0.03 0.03 0.05 0.03 0.03 0.02 0.02 0.02 0.02 0.01 0.01 0.03 0.03 0.04 0.05 0.06 0.04 0.05 0.06 0.07 0.02 0.03 0.03 0.02 0.02 0.01 0.02 0.02
0.17 0.18 0.20 0.12 0.10 0.12 0.05 0.02 0.01 0.02 0.02 0.02 0.02 0.03 0.03 0.02 0.03 0.03 0.04 0.06 0.03 0.02 0.02 0.02 0.02 0.02 0.03 0.04 0.04 0.05 0.05 0.04 0.05 0.06 0.04 0.02 0.02 0.03 0.03 0.02 0.02 0.02 0.02
0.07 0.12 0.14 0.07 0.05 0.04 0.03 0.02 0.02 0.02 0.03 0.02 0.01 0.02 0.02 0.02 0.02 0.02 0.04 0.03 0.03 0.03 0.03 0.02 0.04 0.03 0.03 0.03 0.04 0.04 0.03 0.03 0.05 0.03 0.02 0.01 0.01 0.01 0.02 0.02 0.01 0.02 0.02
0.02 0.04 0.05 0.04 0.03 0.02 0.02 0.02 0.02 0.02 0.03 0.03 0.01 0.01 0.02 0.02 0.01 0.02 0.03 0.03 0.03 0.04 0.04 0.04 0.04 0.03 0.02 0.02 0.04 0.03 0.04 0.03 0.03 0.02 0.01 0.01 0.01 0.01 0.01 0.02 0.01 0.01 0.01
0.01 0.01 0.02 0.02 0.02 0.01 0.02 0.03 0.03 0.03 0.04 0.03 0.02 0.02 0.02 0.02 0.01 0.01 0.02 0.03 0.03 0.04 0.05 0.04 0.04 0.03 0.03 0.04 0.04 0.02 0.03 0.03 0.02 0.02 0.02 0.02 0.01 0.02 0.02 0.02 0.03 0.03 0.03
0.01 0.01 0.04 0.02 0.01 0.01 0.02 0.02 0.02 0.03 0.03 0.04 0.03 0.03 0.02 0.02 0.01 0.01 0.01 0.03 0.03 0.05 0.05 0.04 0.04 0.04 0.04 0.05 0.05 0.02 0.02 0.03 0.02 0.02 0.02 0.04 0.04 0.03 0.03 0.04 0.04 0.05 0.05
0.01 0.01 0.01 0.01 0.01 0.01 0.02 0.02 0.02 0.02 0.02 0.03 0.03 0.03 0.03 0.03 0.01 0.01 0.01 0.02 0.03 0.03 0.04 0.04 0.04 0.04 0.03 0.04 0.04 0.03 0.04 0.04 0.04 0.04 0.05 0.06 0.07 0.08 0.08 0.07 0.07 0.06 0.07
0.01 0.01 0.01 0.01 0.02 0.03 0.02 0.02 0.01 0.01 0.01 0.02 0.03 0.03 0.03 0.02 0.02 0.02 0.02 0.02 0.02 0.03 0.03 0.04 0.04 0.03 0.03 0.04 0.03 0.04 0.05 0.06 0.06 0.07 0.07 0.09 0.12 0.15 0.22 0.24 0.16 0.12 0.09
0.02 0.01 0.01 0.01 0.02 0.02 0.03 0.02 0.01 0.01 0.01 0.02 0.02 0.03 0.02 0.01 0.02 0.02 0.03 0.02 0.02 0.02 0.02 0.03 0.03 0.04 0.04 0.05 0.04 0.03 0.04 0.06 0.08 0.11 0.10 0.11 0.14 0.17 0.23 0.20 0.18 0.14 0.10
0.01 0.01 0.01 0.01 0.01 0.00 0.01 0.01 0.01 0.01 0.01 0.02 0.02 0.02 0.02 0.03 0.03 0.03 0.04 0.04 0.02 0.02 0.03 0.02 0.03 0.04 0.05 0.05 0.05 0.05 0.05 0.08 0.10 0.10 0.12 0.12 0.12 0.14 0.17 0.16 0.16 0.17 0.17
0.01 0.01 0.01 0.01 0.00 0.00 0.01 0.02 0.02 0.01 0.01 0.02 0.02 0.02 0.03 0.04 0.05 0.05 0.05 0.04 0.04 0.03 0.03 0.03 0.03 0.05 0.07 0.06 0.07 0.06 0.05 0.04 0.05 0.09 0.15 0.16 0.12 0.10 0.11 0.12 0.16 0.17 0.18
0.01 0.01 0.00 0.01 0.01 0.01 0.02 0.02 0.01 0.01 0.01 0.02 0.03 0.03 0.04 0.05 0.05 0.06 0.08 0.06 0.05 0.04 0.03 0.03 0.04 0.06 0.07 0.06 0.08 0.07 0.07 0.06 0.04 0.07 0.12 0.12 0.10 0.11 0.10 0.09 0.11 0.15 0.22
0.00 0.00 0.01 0.01 0.01 0.01 0.01 0.01 0.01 0.01 0.01 0.02 0.03 0.04 0.04 0.04 0.05 0.06 0.08 0.06 0.04 0.03 0.04 0.04 0.05 0.06 0.06 0.06 0.06 0.08 0.08 0.08 0.07 0.05 0.05 0.06 0.10 0.18 0.13 0.11 0.12 0.15 0.20
0.01 0.01 0.01 0.01 0.01 0.01 0.01 0.01 0.01 0.01 0.03 0.04 0.04 0.05 0.05 0.05 0.05 0.06 0.06 0.05 0.05 0.04 0.04 0.05 0.05 0.06 0.06 0.06 0.06 0.07 0.09 0.11 0.10 0.08 0.05 0.03 0.05 0.13 0.15 0.11 0.12 0.14 0.14

GEFSSE_prec_meanprec_228.txt.gz
QPF
0.12 0.20 0.22 0.14 0.08 0.08 0.08 0.07 0.07 0.06 0.08 0.09 0.10 0.09 0.09 0.09 0.10 0.09 0.09 0.08 0.11 0.16 0.14 0.09 0.07 0.05 0.05 0.06 0.06 0.05 0.04 0.04 0.03 0.02 0.02 0.03 0.02 0.03 0.04 0.04 0.04 0.04 0.04
0.09 0.15 0.16 0.10 0.07 0.07 0.05 0.05 0.05 0.05 0.07 0.07 0.07 0.07 0.07 0.07 0.08 0.10 0.12 0.13 0.12 0.12 0.09 0.06 0.06 0.05 0.04 0.04 0.04 0.03 0.04 0.03 0.03 0.03 0.04 0.03 0.03 0.04 0.04 0.04 0.04 0.04 0.03
0.08 0.07 0.07 0.08 0.09 0.07 0.05 0.05 0.05 0.04 0.05 0.06 0.06 0.06 0.06 0.08 0.10 0.13 0.12 0.11 0.09 0.08 0.07 0.05 0.05 0.04 0.03 0.03 0.03 0.03 0.04 0.04 0.03 0.02 0.02 0.01 0.02 0.05 0.05 0.06 0.05 0.04 0.03
0.08 0.06 0.05 0.05 0.06 0.06 0.05 0.06 0.05 0.04 0.04 0.04 0.04 0.05 0.05 0.06 0.08 0.09 0.06 0.06 0.06 0.05 0.04 0.04 0.04 0.03 0.02 0.03 0.03 0.04 0.05 0.03 0.02 0.01 0.01 0.00 0.01 0.04 0.05 0.08 0.07 0.05 0.04
0.08 0.06 0.07 0.06 0.06 0.05 0.04 0.05 0.06 0.05 0.05 0.04 0.03 0.04 0.04 0.04 0.05 0.07 0.06 0.05 0.03 0.02 0.01 0.02 0.03 0.03 0.02 0.02 0.03 0.03 0.04 0.02 0.02 0.01 0.00 0.00 0.01 0.05 0.05 0.09 0.08 0.04 0.03
0.06 0.06 0.07 0.05 0.05 0.04 0.05 0.05 0.05 0.04 0.03 0.03 0.03 0.03 0.03 0.03 0.03 0.04 0.04 0.04 0.03 0.01 0.02 0.02 0.03 0.04 0.04 0.03 0.03 0.02 0.02 0.03 0.01 0.00 0.00 0.00 0.01 0.04 0.04 0.06 0.06 0.03 0.02
0.03 0.05 0.05 0.05 0.04 0.03 0.04 0.04 0.04 0.03 0.03 0.02 0.03 0.02 0.02 0.02 0.03 0.03 0.02 0.03 0.03 0.02 0.02 0.02 0.03 0.04 0.04 0.04 0.03 0.03 0.03 0.03 0.01 0.00 0.01 0.01 0.01 0.03 0.04 0.04 0.03 0.03 0.02
0.03 0.04 0.03 0.04 0.04 0.04 0.03 0.03 0.03 0.03 0.03 0.02 0.02 0.02 0.02 0.02 0.01 0.01 0.01 0.02 0.03 0.04 0.03 0.02 0.03 0.05 0.05 0.05 0.04 0.04 0.05 0.04 0.01 0.01 0.00 0.00 0.01 0.03 0.03 0.03 0.02 0.02 0.02
0.03 0.04 0.04 0.04 0.04 0.04 0.06 0.04 0.03 0.02 0.03 0.02 0.01 0.02 0.03 0.02 0.01 0.01 0.02 0.02 0.02 0.03 0.04 0.04 0.04 0.06 0.06 0.05 0.04 0.06 0.05 0.05 0.02 0.01 0.01 0.01 0.01 0.01 0.01 0.01 0.01 0.01 0.01
0.03 0.04 0.03 0.05 0.03 0.02 0.04 0.06 0.04 0.03 0.03 0.03 0.03 0.02 0.02 0.02 0.02 0.02 0.02 0.02 0.02 0.02 0.03 0.04 0.04 0.06 0.05 0.05 0.05 0.07 0.06 0.04 0.02 0.02 0.01 0.01 0.01 0.01 0.01 0.01 0.01 0.01 0.01
0.04 0.04 0.04 0.04 0.02 0.02 0.03 0.03 0.03 0.04 0.04 0.03 0.02 0.02 0.01 0.00 0.00 0.00 0.01 0.03 0.04 0.04 0.03 0.04 0.04 0.06 0.07 0.07 0.08 0.09 0.06 0.04 0.03 0.03 0.02 0.02 0.02 0.02 0.02 0.01 0.01 0.01 0.02
0.04 0.03 0.03 0.04 0.03 0.02 0.02 0.02 0.02 0.02 0.02 0.01 0.01 0.01 0.00 0.00 0.00 0.00 0.01 0.03 0.04 0.04 0.04 0.05 0.05 0.06 0.07 0.08 0.08 0.07 0.04 0.03 0.03 0.03 0.04 0.04 0.03 0.02 0.02 0.02 0.02 0.02 0.03
0.06 0.03 0.03 0.03 0.02 0.01 0.01 0.01 0.01 0.02 0.01 0.01 0.00 0.01 0.00 0.00 0.00 0.01 0.02 0.03 0.03 0.03 0.03 0.04 0.04 0.05 0.05 0.08 0.06 0.04 0.03 0.03 0.03 0.03 0.04 0.04 0.04 0.03 0.03 0.02 0.02 0.02 0.03
0.09 0.04 0.03 0.03 0.03 0.02 0.02 0.02 0.02 0.02 0.01 0.01 0.01 0.01 0.01 0.01 0.01 0.01 0.01 0.01 0.03 0.02 0.02 0.02 0.02 0.04 0.05 0.08 0.04 0.03 0.03 0.05 0.04 0.03 0.03 0.03 0.03 0.04 0.04 0.04 0.03 0.02 0.02
0.09 0.06 0.03 0.02 0.03 0.03 0.03 0.03 0.03 0.03 0.03 0.02 0.02 0.02 0.02 0.03 0.03 0.02 0.04 0.03 0.03 0.02 0.02 0.02 0.01 0.02 0.03 0.03 0.03 0.02 0.02 0.03 0.03 0.02 0.02 0.03 0.03 0.04 0.05 0.06 0.06 0.04 0.03
0.06 0.05 0.04 0.03 0.03 0.03 0.04 0.03 0.03 0.03 0.03 0.03 0.02 0.02 0.02 0.02 0.03 0.04 0.05 0.05 0.05 0.06 0.04 0.02 0.02 0.02 0.02 0.03 0.03 0.02 0.02 0.02 0.02 0.01 0.01 0.02 0.05 0.05 0.05 0.06 0.07 0.07 0.06
0.03 0.03 0.03 0.04 0.03 0.02 0.02 0.04 0.03 0.02 0.03 0.03 0.02 0.03 0.03 0.04 0.04 0.05 0.05 0.04 0.05 0.07 0.07 0.05 0.03 0.02 0.03 0.03 0.03 0.02 0.02 0.02 0.01 0.01 0.01 0.02 0.04 0.06 0.06 0.07 0.08 0.09 0.10
0.02 0.01 0.02 0.03 0.03 0.02 0.02 0.03 0.02 0.02 0.02 0.02 0.03 0.03 0.03 0.04 0.04 0.05 0.06 0.06 0.06 0.04 0.05 0.06 0.04 0.04 0.04 0.04 0.03 0.03 0.03 0.02 0.01 0.01 0.02 0.04 0.04 0.04 0.05 0.07 0.09 0.09 0.11
0.02 0.01 0.01 0.02 0.02 0.02 0.02 0.03 0.03 0.02 0.01 0.01 0.02 0.03 0.03 0.05 0.06 0.05 0.05 0.05 0.04 0.03 0.04 0.03 0.03 0.04 0.03 0.03 0.03 0.05 0.05 0.04 0.03 0.03 0.04 0.06 0.07 0.08 0.08 0.06 0.09 0.10 0.10
0.01 0.01 0.01 0.02 0.02 0.02 0.02 0.02 0.02 0.02 0.02 0.02 0.02 0.02 0.03 0.05 0.06 0.06 0.06 0.06 0.03 0.02 0.02 0.03 0.04 0.04 0.04 0.05 0.04 0.05 0.05 0.03 0.04 0.05 0.05 0.07 0.09 0.11 0.09 0.08 0.09 0.09 0.10
0.01 0.01 0.00 0.01 0.01 0.01 0.01 0.01 0.01 0.02 0.02 0.02 0.03 0.02 0.02 0.04 0.05 0.06 0.07 0.07 0.06 0.04 0.03 0.03 0.05 0.05 0.06 0.06 0.05 0.04 0.04 0.02 0.03 0.04 0.04 0.06 0.07 0.07 0.06 0.07 0.10 0.10 0.09
0.01 0.01 0.01 0.01 0.01 0.01 0.01 0.01 0.01 0.02 0.02 0.02 0.03 0.03 0.03 0.04 0.05 0.05 0.06 0.07 0.07 0.05 0.05 0.05 0.05 0.05 0.05 0.06 0.06 0.05 0.03 0.03 0.03 0.04 0.04 0.04 0.05 0.05 0.04 0.07 0.08 0.07 0.07
0.01 0.01 0.01 0.01 0.01 0.01 0.01 0.01 0.01 0.02 0.02 0.02 0.03 0.04 0.03 0.04 0.06 0.08 0.08 0.08 0.09 0.08 0.06 0.05 0.05 0.05 0.04 0.05 0.06 0.05 0.03 0.03 0.04 0.03 0.03 0.03 0.03 0.03 0.03 0.05 0.06 0.07 0.07
0.01 0.01 0.01 0.01 0.01 0.01 0.01 0.01 0.01 0.01 0.02 0.03 0.04 0.03 0.03 0.04 0.06 0.09 0.09 0.10 0.10 0.07 0.05 0.06 0.06 0.04 0.03 0.04 0.05 0.05 0.04 0.03 0.03 0.03 0.03 0.03 0.02 0.02 0.04 0.05 0.05 0.07 0.08
0.01 0.01 0.01 0.01 0.01 0.01 0.01 0.01 0.02 0.02 0.02 0.03 0.04 0.04 0.03 0.04 0.06 0.06 0.08 0.08 0.09 0.08 0.07 0.07 0.06 0.05 0.04 0.05 0.06 0.05 0.06 0.05 0.03 0.03 0.03 0.04 0.03 0.03 0.04 0.05 0.06 0.06 0.08
0.01 0.01 0.01 0.01 0.01 0.02 0.03 0.02 0.02 0.02 0.02 0.03 0.05 0.04 0.04 0.04 0.05 0.06 0.06 0.06 0.06 0.06 0.07 0.07 0.07 0.06 0.06 0.06 0.06 0.05 0.05 0.05 0.06 0.06 0.05 0.03 0.03 0.03 0.05 0.06 0.04 0.04 0.05

GEFSSE_prec_meanprec_234.txt.gz
QPF
0.14 0.18 0.22 0.19 0.14 0.12 0.12 0.12 0.13 0.08 0.08 0.10 0.12 0.08 0.09 0.07 0.06 0.09 0.09 0.09 0.13 0.12 0.10 0.09 0.08 0.07 0.05 0.04 0.04 0.03 0.03 0.03 0.02 0.02 0.01 0.02 0.02 0.02 0.02 0.03 0.04 0.05 0.05
0.10 0.13 0.19 0.18 0.13 0.13 0.11 0.09 0.08 0.08 0.09 0.10 0.11 0.09 0.09 0.09 0.07 0.09 0.10 0.14 0.14 0.12 0.09 0.07 0.06 0.06 0.04 0.03 0.02 0.03 0.02 0.02 0.02 0.01 0.01 0.01 0.02 0.02 0.02 0.02 0.03 0.05 0.06
0.06 0.07 0.10 0.15 0.12 0.11 0.10 0.09 0.08 0.07 0.08 0.08 0.08 0.08 0.10 0.12 0.12 0.13 0.13 0.11 0.10 0.10 0.08 0.07 0.06 0.05 0.03 0.03 0.02 0.02 0.02 0.01 0.02 0.01 0.01 0.03 0.02 0.01 0.02 0.01 0.03 0.05 0.05
0.04 0.05 0.06 0.11 0.10 0.10 0.09 0.07 0.06 0.07 0.06 0.06 0.06 0.08 0.14 0.24 0.22 0.16 0.10 0.07 0.08 0.08 0.07 0.07 0.06 0.05 0.04 0.03 0.02 0.02 0.02 0.01 0.01 0.01 0.01 0.02 0.01 0.02 0.02 0.02 0.03 0.03 0.04
0.04 0.06 0.07 0.10 0.11 0.08 0.06 0.05 0.06 0.06 0.05 0.06 0.05 0.07 0.12 0.18 0.15 0.10 0.06 0.06 0.09 0.08 0.07 0.07 0.05 0.04 0.04 0.03 0.02 0.02 0.02 0.02 0.01 0.01 0.01 0.02 0.02 0.03 0.04 0.04 0.04 0.03 0.03
0.04 0.05 0.05 0.07 0.08 0.07 0.05 0.04 0.05 0.05 0.05 0.05 0.05 0.06 0.07 0.09 0.09 0.08 0.06 0.07 0.10 0.08 0.07 0.07 0.05 0.05 0.05 0.03 0.02 0.02 0.02 0.02 0.02 0.01 0.01 0.02 0.03 0.04 0.06 0.07 0.09 0.07 0.05
0.03 0.03 0.03 0.06 0.07 0.06 0.06 0.04 0.04 0.05 0.05 0.05 0.05 0.05 0.05 0.05 0.06 0.06 0.07 0.07 0.07 0.05 0.06 0.07 0.05 0.04 0.03 0.02 0.02 0.02 0.01 0.02 0.03 0.03 0.02 0.02 0.02 0.05 0.08 0.08 0.12 0.09 0.04
0.02 0.03 0.03 0.05 0.07 0.05 0.04 0.05 0.05 0.05 0.05 0.05 0.05 0.04 0.04 0.03 0.03 0.04 0.06 0.05 0.04 0.03 0.04 0.05 0.04 0.03 0.02 0.02 0.02 0.01 0.02 0.03 0.02 0.02 0.01 0.02 0.02 0.03 0.06 0.08 0.10 0.05 0.03
0.03 0.04 0.04 0.05 0.07 0.05 0.04 0.05 0.05 0.04 0.03 0.03 0.03 0.04 0.04 0.03 0.02 0.02 0.04 0.03 0.02 0.02 0.02 0.03 0.05 0.04 0.03 0.03 0.02 0.02 0.03 0.02 0.01 0.01 0.01 0.02 0.03 0.03 0.04 0.06 0.05 0.02 0.02
0.03 0.04 0.04 0.05 0.07 0.07 0.06 0.04 0.05 0.04 0.04 0.04 0.03 0.03 0.03 0.03 0.02 0.02 0.03 0.02 0.02 0.03 0.03 0.04 0.08 0.08 0.05 0.03 0.02 0.02 0.04 0.03 0.02 0.02 0.01 0.01 0.03 0.03 0.04 0.04 0.03 0.03 0.03
0.02 0.04 0.04 0.05 0.05 0.05 0.05 0.03 0.04 0.05 0.05 0.04 0.03 0.03 0.03 0.02 0.01 0.02 0.03 0.04 0.04 0.05 0.05 0.10 0.13 0.08 0.05 0.03 0.03 0.03 0.03 0.03 0.02 0.04 0.02 0.01 0.03 0.02 0.02 0.03 0.03 0.03 0.04
0.02 0.03 0.04 0.04 0.04 0.04 0.03 0.03 0.04 0.04 0.04 0.03 0.02 0.02 0.01 0.01 0.01 0.01 0.02 0.03 0.04 0.05 0.05 0.10 0.15 0.10 0.05 0.04 0.04 0.03 0.03 0.03 0.03 0.03 0.04 0.04 0.04 0.03 0.02 0.02 0.03 0.03 0.03
0.02 0.03 0.04 0.04 0.03 0.02 0.02 0.02 0.02 0.03 0.03 0.02 0.02 0.03 0.02 0.02 0.01 0.02 0.02 0.02 0.02 0.02 0.04 0.06 0.08 0.08 0.05 0.05 0.05 0.04 0.03 0.03 0.04 0.03 0.03 0.03 0.03 0.03 0.03 0.03 0.02 0.03 0.02
0.03 0.04 0.04 0.02 0.02 0.02 0.01 0.02 0.02 0.01 0.02 0.02 0.01 0.01 0.03 0.04 0.03 0.02 0.03 0.03 0.02 0.02 0.04 0.03 0.05 0.06 0.05 0.05 0.05 0.05 0.04 0.03 0.03 0.03 0.02 0.02 0.02 0.03 0.04 0.05 0.05 0.04 0.03
0.04 0.05 0.04 0.02 0.03 0.03 0.03 0.02 0.01 0.01 0.02 0.02 0.02 0.01 0.02 0.04 0.07 0.05 0.04 0.04 0.03 0.03 0.03 0.03 0.04 0.06 0.07 0.06 0.05 0.05 0.04 0.03 0.02 0.02 0.02 0.02 0.02 0.04 0.05 0.06 0.07 0.07 0.07
0.06 0.07 0.05 0.03 0.03 0.03 0.04 0.04 0.03 0.02 0.03 0.02 0.02 0.02 0.02 0.04 0.07 0.06 0.05 0.06 0.05 0.04 0.04 0.05 0.05 0.07 0.07 0.05 0.04 0.03 0.03 0.03 0.02 0.02 0.02 0.03 0.03 0.04 0.05 0.06 0.07 0.07 0.07
0.05 0.07 0.06 0.04 0.04 0.03 0.03 0.04 0.02 0.01 0.02 0.02 0.03 0.03 0.04 0.04 0.07 0.07 0.06 0.07 0.07 0.07 0.07 0.07 0.06 0.07 0.06 0.05 0.04 0.02 0.03 0.03 0.02 0.02 0.02 0.04 0.06 0.04 0.04 0.05 0.07 0.08 0.07
0.03 0.06 0.04 0.03 0.03 0.02 0.03 0.04 0.03 0.03 0.02 0.03 0.03 0.04 0.05 0.06 0.08 0.09 0.08 0.07 0.08 0.06 0.07 0.10 0.09 0.08 0.07 0.07 0.07 0.05 0.04 0.03 0.02 0.02 0.02 0.03 0.05 0.05 0.06 0.05 0.05 0.06 0.08
0.02 0.03 0.03 0.02 0.02 0.01 0.02 0.03 0.03 0.04 0.04 0.03 0.03 0.03 0.04 0.06 0.06 0.06 0.07 0.07 0.06 0.06 0.06 0.07 0.08 0.08 0.09 0.09 0.07 0.06 0.04 0.02 0.04 0.04 0.03 0.03 0.03 0.04 0.05 0.04 0.04 0.05 0.07
0.01 0.01 0.02 0.01 0.02 0.02 0.02 0.04 0.04 0.05 0.03 0.04 0.05 0.04 0.03 0.05 0.05 0.05 0.05 0.06 0.06 0.07 0.08 0.10 0.10 0.09 0.10 0.09 0.05 0.05 0.06 0.02 0.03 0.03 0.03 0.02 0.02 0.02 0.03 0.05 0.06 0.06 0.06
0.00 0.00 0.01 0.01 0.02 0.02 0.03 0.04 0.04 0.05 0.04 0.04 0.04 0.04 0.06 0.06 0.06 0.08 0.05 0.06 0.08 0.08 0.09 0.09 0.09 0.10 0.09 0.07 0.06 0.06 0.05 0.03 0.03 0.03 0.03 0.02 0.02 0.01 0.02 0.03 0.04 0.07 0.07
0.00 0.00 0.00 0.01 0.01 0.01 0.02 0.03 0.04 0.04 0.04 0.04 0.04 0.05 0.06 0.06 0.07 0.08 0.08 0.09 0.10 0.10 0.11 0.11 0.09 0.08 0.07 0.08 0.09 0.09 0.09 0.08 0.05 0.02 0.02 0.02 0.01 0.01 0.01 0.02 0.02 0.04 0.06
0.00 0.00 0.00 0.00 0.00 0.00 0.01 0.03 0.03 0.05 0.04 0.05 0.05 0.06 0.05 0.05 0.06 0.06 0.06 0.08 0.10 0.09 0.09 0.09 0.09 0.09 0.09 0.07 0.08 0.10 0.10 0.09 0.07 0.04 0.02 0.02 0.02 0.03 0.03 0.03 0.02 0.03 0.04
0.00 0.00 0.00 0.00 0.00 0.01 0.01 0.02 0.04 0.04 0.04 0.04 0.03 0.03 0.03 0.03 0.04 0.04 0.04 0.05 0.07 0.08 0.09 0.07 0.07 0.09 0.10 0.10 0.11 0.10 0.09 0.08 0.08 0.07 0.04 0.04 0.03 0.03 0.04 0.03 0.03 0.04 0.05
0.00 0.00 0.00 0.00 0.00 0.01 0.02 0.03 0.04 0.04 0.03 0.02 0.01 0.02 0.04 0.04 0.04 0.04 0.05 0.06 0.07 0.08 0.09 0.09 0.09 0.08 0.08 0.10 0.12 0.11 0.10 0.08 0.05 0.05 0.05 0.05 0.04 0.03 0.03 0.03 0.04 0.06 0.07
0.00 0.00 0.00 0.00 0.01 0.02 0.03 0.03 0.04 0.04 0.03 0.02 0.02 0.02 0.04 0.04 0.04 0.05 0.05 0.05 0.06 0.07 0.08 0.07 0.08 0.08 0.08 0.08 0.08 0.08 0.09 0.08 0.07 0.08 0.07 0.06 0.06 0.05 0.05 0.05 0.04 0.04 0.05

GEFSSE_prec_meanprec_240.txt.gz
QPF
0.16 0.10 0.08 0.10 0.11 0.11 0.12 0.14 0.16 0.14 0.13 0.12 0.09 0.08 0.11 0.12 0.09 0.09 0.09 0.07 0.07 0.06 0.06 0.07 0.06 0.05 0.05 0.04 0.03 0.03 0.03 0.03 0.02 0.02 0.02 0.02 0.01 0.02 0.02 0.04 0.05 0.05 0.05
0.08 0.06 0.07 0.10 0.11 0.10 0.11 0.11 0.12 0.13 0.12 0.10 0.09 0.10 0.10 0.08 0.06 0.08 0.09 0.08 0.08 0.08 0.08 0.07 0.05 0.04 0.04 0.03 0.03 0.03 0.03 0.02 0.02 0.01 0.01 0.01 0.01 0.02 0.03 0.05 0.06 0.05 0.03
0.04 0.04 0.05 0.10 0.10 0.09 0.10 0.10 0.11 0.11 0.09 0.08 0.07 0.08 0.06 0.08 0.09 0.11 0.11 0.09 0.09 0.09 0.08 0.07 0.04 0.03 0.02 0.01 0.01 0.01 0.01 0.02 0.02 0.04 0.06 0.04 0.01 0.02 0.03 0.03 0.03 0.02 0.02
0.02 0.03 0.03 0.07 0.07 0.07 0.08 0.08 0.08 0.09 0.09 0.09 0.07 0.07 0.08 0.11 0.11 0.12 0.11 0.09 0.09 0.08 0.08 0.06 0.04 0.02 0.02 0.01 0.01 0.01 0.01 0.01 0.02 0.06 0.08 0.04 0.03 0.04 0.03 0.02 0.03 0.03 0.03
0.02 0.03 0.03 0.05 0.04 0.05 0.07 0.08 0.08 0.08 0.09 0.10 0.09 0.10 0.13 0.11 0.10 0.11 0.10 0.11 0.10 0.08 0.07 0.05 0.03 0.02 0.01 0.01 0.01 0.02 0.01 0.01 0.03 0.05 0.04 0.04 0.05 0.04 0.03 0.02 0.02 0.02 0.03
0.02 0.03 0.02 0.03 0.03 0.04 0.05 0.05 0.08 0.11 0.13 0.13 0.11 0.11 0.11 0.11 0.13 0.11 0.10 0.09 0.10 0.09 0.07 0.06 0.04 0.02 0.02 0.02 0.01 0.01 0.02 0.02 0.04 0.05 0.02 0.03 0.03 0.02 0.03 0.04 0.03 0.02 0.03
0.02 0.02 0.02 0.02 0.03 0.03 0.04 0.03 0.05 0.08 0.10 0.11 0.11 0.13 0.15 0.15 0.13 0.10 0.08 0.08 0.10 0.09 0.07 0.06 0.04 0.02 0.02 0.02 0.01 0.01 0.02 0.04 0.04 0.04 0.03 0.03 0.02 0.02 0.03 0.05 0.04 0.05 0.05
0.01 0.01 0.02 0.03 0.03 0.03 0.02 0.03 0.03 0.03 0.04 0.06 0.07 0.09 0.12 0.11 0.10 0.09 0.08 0.07 0.08 0.06 0.06 0.06 0.05 0.02 0.02 0.02 0.01 0.01 0.02 0.03 0.03 0.04 0.05 0.03 0.02 0.03 0.04 0.05 0.06 0.11 0.11
0.01 0.01 0.03 0.04 0.03 0.01 0.01 0.02 0.02 0.02 0.02 0.02 0.02 0.03 0.05 0.06 0.07 0.09 0.09 0.07 0.06 0.04 0.06 0.07 0.05 0.02 0.02 0.02 0.02 0.02 0.03 0.04 0.05 0.04 0.04 0.02 0.01 0.03 0.05 0.05 0.07 0.11 0.09
0.02 0.03 0.05 0.05 0.04 0.03 0.02 0.01 0.02 0.02 0.03 0.02 0.01 0.02 0.03 0.04 0.05 0.05 0.07 0.07 0.04 0.04 0.09 0.09 0.05 0.02 0.02 0.02 0.02 0.02 0.02 0.04 0.06 0.05 0.03 0.01 0.04 0.04 0.05 0.06 0.07 0.11 0.07
0.02 0.04 0.06 0.04 0.04 0.03 0.03 0.02 0.03 0.02 0.03 0.04 0.03 0.02 0.04 0.06 0.05 0.05 0.05 0.04 0.04 0.03 0.10 0.09 0.05 0.03 0.02 0.02 0.02 0.02 0.02 0.04 0.07 0.07 0.03 0.01 0.05 0.04 0.04 0.04 0.04 0.05 0.05
0.03 0.04 0.06 0.05 0.03 0.02 0.03 0.03 0.05 0.04 0.05 0.05 0.05 0.05 0.07 0.07 0.06 0.04 0.03 0.02 0.02 0.03 0.08 0.08 0.06 0.06 0.05 0.04 0.03 0.02 0.03 0.04 0.07 0.08 0.04 0.03 0.03 0.02 0.02 0.03 0.03 0.03 0.04
0.02 0.04 0.05 0.05 0.05 0.03 0.02 0.02 0.02 0.03 0.04 0.05 0.04 0.04 0.05 0.05 0.03 0.03 0.03 0.04 0.03 0.04 0.08 0.12 0.07 0.06 0.05 0.05 0.03 0.04 0.04 0.04 0.05 0.06 0.05 0.03 0.02 0.02 0.02 0.02 0.02 0.03 0.02
0.02 0.03 0.04 0.05 0.06 0.04 0.01 0.02 0.02 0.01 0.02 0.03 0.03 0.03 0.05 0.06 0.05 0.03 0.04 0.03 0.03 0.05 0.11 0.13 0.08 0.06 0.05 0.04 0.03 0.04 0.03 0.04 0.05 0.06 0.04 0.02 0.02 0.01 0.01 0.02 0.02 0.02 0.02
0.02 0.03 0.04 0.04 0.05 0.05 0.03 0.03 0.02 0.01 0.01 0.02 0.02 0.02 0.03 0.06 0.05 0.05 0.04 0.03 0.01 0.02 0.06 0.10 0.08 0.07 0.06 0.03 0.03 0.03 0.04 0.05 0.04 0.06 0.04 0.03 0.02 0.02 0.02 0.02 0.03 0.05 0.04
0.03 0.04 0.04 0.04 0.04 0.05 0.05 0.03 0.02 0.01 0.01 0.01 0.01 0.01 0.01 0.04 0.06 0.07 0.06 0.04 0.02 0.02 0.04 0.05 0.05 0.06 0.04 0.05 0.05 0.04 0.04 0.03 0.04 0.05 0.05 0.04 0.03 0.02 0.03 0.04 0.05 0.06 0.06
0.03 0.04 0.05 0.04 0.04 0.04 0.04 0.03 0.03 0.02 0.00 0.00 0.01 0.01 0.01 0.03 0.06 0.07 0.07 0.07 0.05 0.03 0.05 0.05 0.06 0.06 0.06 0.06 0.07 0.04 0.03 0.03 0.05 0.05 0.04 0.05 0.05 0.03 0.04 0.05 0.05 0.07 0.06
0.02 0.05 0.06 0.03 0.05 0.04 0.05 0.04 0.03 0.03 0.01 0.00 0.00 0.00 0.01 0.02 0.03 0.06 0.07 0.06 0.05 0.06 0.07 0.08 0.09 0.07 0.07 0.07 0.07 0.06 0.04 0.04 0.05 0.05 0.05 0.05 0.07 0.05 0.06 0.04 0.04 0.04 0.05
0.01 0.03 0.06 0.05 0.03 0.03 0.04 0.03 0.03 0.03 0.02 0.02 0.02 0.01 0.03 0.03 0.04 0.05 0.06 0.06 0.06 0.08 0.08 0.07 0.11 0.09 0.07 0.09 0.06 0.06 0.05 0.06 0.06 0.05 0.04 0.04 0.07 0.07 0.09 0.07 0.04 0.03 0.05
0.01 0.01 0.03 0.04 0.03 0.03 0.04 0.04 0.06 0.05 0.04 0.03 0.04 0.03 0.04 0.05 0.05 0.06 0.07 0.08 0.08 0.08 0.08 0.09 0.11 0.10 0.09 0.11 0.08 0.09 0.08 0.06 0.05 0.06 0.06 0.07 0.07 0.07 0.08 0.09 0.07 0.06 0.06
0.01 0.01 0.01 0.02 0.03 0.03 0.04 0.05 0.06 0.05 0.04 0.04 0.03 0.04 0.04 0.03 0.05 0.08 0.07 0.11 0.10 0.10 0.10 0.09 0.11 0.10 0.11 0.11 0.11 0.12 0.11 0.09 0.08 0.10 0.13 0.12 0.09 0.07 0.08 0.10 0.11 0.09 0.07
0.01 0.01 0.01 0.01 0.01 0.02 0.03 0.04 0.04 0.04 0.03 0.04 0.03 0.06 0.06 0.03 0.04 0.06 0.09 0.09 0.10 0.11 0.10 0.11 0.14 0.13 0.12 0.14 0.16 0.17 0.16 0.15 0.11 0.08 0.09 0.08 0.07 0.05 0.06 0.07 0.09 0.10 0.09
0.00 0.00 0.00 0.01 0.01 0.02 0.03 0.03 0.03 0.03 0.03 0.04 0.04 0.05 0.04 0.03 0.03 0.03 0.06 0.08 0.10 0.10 0.10 0.09 0.10 0.13 0.15 0.15 0.16 0.19 0.18 0.17 0.16 0.08 0.05 0.04 0.05 0.05 0.05 0.05 0.05 0.07 0.07
0.00 0.00 0.00 0.00 0.01 0.02 0.02 0.03 0.03 0.03 0.03 0.03 0.04 0.04 0.03 0.03 0.03 0.02 0.03 0.07 0.09 0.09 0.11 0.07 0.09 0.12 0.13 0.14 0.17 0.18 0.19 0.17 0.16 0.11 0.07 0.05 0.04 0.04 0.05 0.06 0.06 0.07 0.08
0.00 0.00 0.00 0.00 0.01 0.02 0.02 0.02 0.03 0.02 0.03 0.03 0.03 0.04 0.05 0.06 0.04 0.02 0.04 0.07 0.07 0.08 0.09 0.09 0.11 0.11 0.11 0.11 0.12 0.14 0.15 0.15 0.13 0.13 0.09 0.09 0.07 0.05 0.04 0.04 0.06 0.08 0.11
0.00 0.00 0.00 0.00 0.01 0.01 0.01 0.02 0.03 0.04 0.04 0.04 0.05 0.07 0.07 0.09 0.07 0.05 0.05 0.07 0.08 0.07 0.08 0.09 0.09 0.09 0.10 0.11 0.11 0.12 0.13 0.13 0.12 0.13 0.11 0.09 0.09 0.07 0.05 0.04 0.05 0.07 0.09

GEFSSE_prec_meanprec_246.txt.gz
QPF
0.07 0.07 0.12 0.13 0.16 0.14 0.11 0.09 0.09 0.06 0.05 0.06 0.09 0.08 0.08 0.08 0.09 0.08 0.07 0.07 0.07 0.06 0.06 0.07 0.09 0.10 0.07 0.06 0.06 0.05 0.05 0.04 0.03 0.04 0.03 0.03 0.03 0.03 0.03 0.02 0.02 0.01 0.02
0.03 0.05 0.10 0.15 0.17 0.15 0.11 0.09 0.08 0.08 0.08 0.08 0.08 0.08 0.08 0.10 0.12 0.10 0.07 0.06 0.06 0.05 0.06 0.06 0.07 0.07 0.05 0.05 0.05 0.04 0.04 0.03 0.03 0.04 0.03 0.02 0.02 0.03 0.02 0.02 0.02 0.02 0.02
0.01 0.02 0.04 0.07 0.10 0.12 0.12 0.10 0.09 0.09 0.10 0.09 0.09 0.08 0.09 0.10 0.10 0.08 0.06 0.06 0.06 0.06 0.05 0.05 0.05 0.04 0.03 0.03 0.03 0.03 0.04 0.04 0.04 0.05 0.03 0.01 0.02 0.03 0.03 0.01 0.02 0.02 0.01
0.01 0.01 0.01 0.03 0.04 0.07 0.10 0.10 0.08 0.07 0.07 0.06 0.07 0.08 0.08 0.08 0.09 0.08 0.08 0.07 0.06 0.05 0.05 0.04 0.03 0.02 0.02 0.02 0.02 0.03 0.03 0.04 0.06 0.06 0.02 0.01 0.01 0.03 0.03 0.02 0.01 0.01 0.02
0.01 0.01 0.02 0.03 0.03 0.05 0.07 0.07 0.06 0.05 0.05 0.05 0.06 0.08 0.08 0.08 0.08 0.08 0.08 0.07 0.05 0.04 0.04 0.03 0.03 0.02 0.02 0.02 0.02 0.02 0.03 0.04 0.06 0.05 0.02 0.01 0.01 0.02 0.02 0.02 0.02 0.02 0.01
0.01 0.01 0.02 0.02 0.03 0.04 0.05 0.07 0.07 0.06 0.06 0.05 0.05 0.05 0.05 0.07 0.07 0.05 0.06 0.06 0.05 0.05 0.04 0.03 0.03 0.02 0.02 0.01 0.02 0.03 0.04 0.05 0.05 0.05 0.03 0.01 0.01 0.01 0.01 0.01 0.02 0.02 0.02
0.02 0.03 0.01 0.02 0.02 0.04 0.05 0.06 0.08 0.09 0.08 0.06 0.05 0.05 0.04 0.05 0.05 0.05 0.07 0.07 0.05 0.04 0.03 0.03 0.03 0.02 0.03 0.02 0.02 0.03 0.04 0.06 0.05 0.05 0.05 0.02 0.01 0.02 0.02 0.02 0.02 0.03 0.03
0.03 0.03 0.01 0.02 0.02 0.04 0.05 0.05 0.05 0.06 0.07 0.07 0.07 0.07 0.06 0.05 0.05 0.05 0.06 0.07 0.06 0.04 0.03 0.03 0.03 0.03 0.03 0.02 0.02 0.04 0.08 0.07 0.04 0.06 0.06 0.02 0.01 0.02 0.02 0.02 0.03 0.03 0.05
0.03 0.03 0.02 0.01 0.02 0.03 0.04 0.05 0.05 0.05 0.06 0.07 0.08 0.08 0.07 0.06 0.05 0.06 0.08 0.08 0.05 0.03 0.03 0.03 0.03 0.03 0.03 0.04 0.04 0.04 0.06 0.08 0.07 0.04 0.03 0.02 0.02 0.03 0.03 0.03 0.03 0.04 0.06
0.04 0.03 0.03 0.02 0.02 0.01 0.02 0.03 0.04 0.05 0.05 0.05 0.05 0.05 0.05 0.05 0.04 0.06 0.12 0.10 0.05 0.03 0.03 0.03 0.04 0.05 0.04 0.04 0.04 0.05 0.07 0.06 0.08 0.05 0.03 0.02 0.03 0.04 0.03 0.03 0.05 0.07 0.08
0.04 0.05 0.04 0.03 0.01 0.01 0.01 0.02 0.02 0.03 0.04 0.04 0.04 0.05 0.04 0.03 0.02 0.03 0.09 0.09 0.06 0.03 0.04 0.05 0.06 0.06 0.04 0.04 0.05 0.05 0.05 0.05 0.06 0.05 0.04 0.02 0.03 0.03 0.03 0.03 0.04 0.07 0.06
0.02 0.04 0.06 0.05 0.02 0.01 0.01 0.01 0.01 0.01 0.01 0.02 0.02 0.02 0.02 0.02 0.01 0.02 0.04 0.07 0.07 0.05 0.07 0.09 0.09 0.08 0.07 0.05 0.05 0.04 0.05 0.06 0.08 0.06 0.05 0.04 0.04 0.04 0.02 0.02 0.02 0.02 0.03
0.03 0.03 0.06 0.05 0.03 0.01 0.01 0.01 0.01 0.01 0.01 0.01 0.01 0.02 0.02 0.02 0.02 0.02 0.03 0.03 0.05 0.07 0.11 0.12 0.08 0.07 0.08 0.07 0.06 0.05 0.06 0.06 0.10 0.07 0.06 0.05 0.06 0.05 0.03 0.02 0.01 0.01 0.02
0.03 0.03 0.05 0.03 0.05 0.03 0.01 0.01 0.02 0.01 0.01 0.01 0.01 0.02 0.03 0.03 0.04 0.04 0.03 0.02 0.04 0.08 0.14 0.11 0.08 0.08 0.12 0.13 0.08 0.06 0.06 0.08 0.10 0.08 0.05 0.04 0.04 0.04 0.03 0.03 0.02 0.02 0.02
0.04 0.04 0.03 0.02 0.02 0.04 0.04 0.02 0.02 0.02 0.02 0.02 0.01 0.02 0.03 0.03 0.03 0.03 0.03 0.03 0.05 0.09 0.10 0.07 0.06 0.06 0.05 0.07 0.08 0.05 0.07 0.08 0.07 0.06 0.04 0.03 0.03 0.04 0.05 0.04 0.03 0.03 0.03
0.04 0.06 0.03 0.02 0.02 0.02 0.02 0.02 0.02 0.02 0.02 0.03 0.02 0.03 0.03 0.02 0.02 0.03 0.04 0.03 0.05 0.07 0.07 0.08 0.07 0.07 0.05 0.05 0.05 0.04 0.05 0.06 0.06 0.07 0.05 0.04 0.04 0.04 0.05 0.06 0.07 0.05 0.04
0.02 0.03 0.03 0.03 0.02 0.02 0.02 0.02 0.03 0.03 0.03 0.02 0.03 0.03 0.03 0.02 0.03 0.04 0.03 0.03 0.02 0.05 0.06 0.05 0.06 0.05 0.05 0.05 0.04 0.04 0.05 0.05 0.06 0.07 0.07 0.06 0.04 0.06 0.08 0.09 0.08 0.06 0.07
0.01 0.01 0.02 0.02 0.02 0.01 0.01 0.01 0.01 0.02 0.03 0.02 0.02 0.02 0.02 0.03 0.04 0.04 0.03 0.02 0.02 0.03 0.05 0.04 0.05 0.05 0.07 0.06 0.04 0.04 0.05 0.06 0.07 0.08 0.08 0.08 0.07 0.07 0.08 0.09 0.07 0.06 0.07
0.00 0.00 0.02 0.02 0.02 0.01 0.01 0.01 0.01 0.01 0.02 0.02 0.03 0.03 0.03 0.04 0.04 0.04 0.03 0.03 0.03 0.03 0.04 0.04 0.05 0.07 0.06 0.05 0.04 0.07 0.11 0.07 0.08 0.08 0.07 0.07 0.10 0.15 0.09 0.09 0.10 0.10 0.07
0.00 0.00 0.01 0.02 0.02 0.02 0.02 0.01 0.01 0.02 0.02 0.03 0.03 0.03 0.04 0.04 0.04 0.05 0.05 0.04 0.04 0.03 0.03 0.03 0.04 0.06 0.05 0.05 0.04 0.06 0.08 0.07 0.08 0.08 0.06 0.05 0.07 0.08 0.09 0.10 0.11 0.10 0.09
0.00 0.00 0.00 0.00 0.01 0.01 0.02 0.02 0.02 0.02 0.01 0.01 0.02 0.04 0.04 0.04 0.04 0.05 0.05 0.04 0.04 0.04 0.04 0.05 0.05 0.08 0.09 0.08 0.05 0.05 0.05 0.05 0.05 0.07 0.07 0.07 0.08 0.09 0.12 0.13 0.14 0.13 0.12
0.00 0.00 0.00 0.00 0.00 0.01 0.01 0.02 0.01 0.01 0.01 0.01 0.01 0.03 0.03 0.05 0.05 0.04 0.05 0.05 0.04 0.04 0.04 0.05 0.07 0.07 0.06 0.06 0.06 0.06 0.05 0.05 0.04 0.06 0.08 0.08 0.09 0.10 0.10 0.08 0.09 0.09 0.10
0.00 0.00 0.00 0.00 0.00 0.00 0.00 0.00 0.01 0.01 0.01 0.01 0.01 0.01 0.02 0.04 0.04 0.06 0.06 0.06 0.06 0.04 0.04 0.05 0.06 0.05 0.05 0.06 0.07 0.07 0.06 0.05 0.04 0.05 0.06 0.06 0.07 0.08 0.09 0.08 0.06 0.04 0.05
0.00 0.00 0.00 0.00 0.00 0.00 0.00 0.01 0.01 0.02 0.02 0.02 0.01 0.02 0.02 0.03 0.03 0.06 0.09 0.10 0.08 0.04 0.05 0.04 0.05 0.06 0.06 0.05 0.08 0.08 0.06 0.06 0.06 0.04 0.04 0.04 0.05 0.07 0.07 0.07 0.07 0.07 0.07
0.00 0.00 0.00 0.00 0.00 0.00 0.00 0.01 0.01 0.01 0.02 0.01 0.01 0.02 0.02 0.04 0.05 0.06 0.08 0.08 0.08 0.07 0.05 0.05 0.06 0.06 0.04 0.05 0.07 0.08 0.08 0.07 0.08 0.06 0.05 0.04 0.04 0.06 0.05 0.06 0.07 0.07 0.09
0.00 0.00 0.00 0.00 0.00 0.00 0.01 0.01 0.00 0.01 0.01 0.01 0.01 0.01 0.02 0.02 0.03 0.04 0.04 0.07 0.09 0.08 0.06 0.06 0.06 0.07 0.07 0.07 0.08 0.10 0.10 0.08 0.07 0.06 0.05 0.05 0.04 0.04 0.04 0.05 0.06 0.07 0.10